CAPE
0 0 0 0 0 13 12 4 8 7 13 8 6 10 4 4 5 11 12 14 7 30 24 38 42 50 30 12 18 50 26 15 5 0 0 0 3 2 2 2 0 0 0
0 0 0 0 0 4 3 10 6 5 5 6 5 7 14 4 4 7 20 11 32 25 37 39 40 38 20 23 28 61 15 14 3 0 0 0 0 1 3 2 1 0 1
0 0 0 0 1 0 8 4 4 4 1 2 1 7 15 8 12 9 17 34 37 35 28 27 25 27 20 23 19 20 7 0 0 0 0 0 0 1 5 2 2 2 1
0 0 0 0 4 5 3 3 5 2 9 11 14 3 9 9 10 11 27 22 16 10 18 22 9 2 6 7 14 10 2 0 0 0 0 0 0 3 10 6 7 7 4
0 0 0 2 3 3 3 3 3 4 8 5 4 1 3 5 7 22 15 7 8 10 9 12 16 4 5 8 7 2 1 0 0 0 0 0 0 4 9 19 10 8 5
0 0 0 0 0 1 3 2 4 8 7 3 1 3 3 2 7 6 8 5 9 9 7 7 5 3 3 4 4 1 0 0 0 0 0 0 0 13 13 11 9 6 8
0 0 0 0 0 1 0 0 2 3 1 1 1 0 0 1 3 5 3 2 5 6 8 6 6 4 2 2 2 0 0 0 0 0 0 0 0 7 17 23 16 19 15
0 0 0 0 0 0 0 0 1 1 0 0 0 0 0 1 2 1 2 1 1 2 2 4 4 2 0 1 2 0 0 0 0 0 0 0 1 6 8 4 10 12 22
0 0 0 0 0 0 0 0 0 0 0 0 0 0 0 0 0 0 1 1 0 0 0 1 0 0 0 0 0 0 0 0 0 0 0 0 4 10 12 11 21 12 20
0 0 0 0 0 0 0 0 0 0 0 0 0 0 0 0 0 0 0 0 0 0 0 0 0 0 0 0 0 0 0 0 0 0 0 0 6 11 12 14 2 14 24
0 0 0 0 0 0 0 0 0 0 0 0 0 0 0 0 0 0 0 0 0 0 0 0 0 0 0 0 0 0 0 0 0 0 0 0 3 8 8 15 16 9 24
0 0 0 0 0 0 0 0 0 0 0 0 0 0 0 0 0 0 0 0 0 0 0 0 0 0 0 0 0 0 0 0 0 0 0 0 2 5 8 14 3 7 9
0 0 0 0 0 0 0 0 0 0 0 0 0 0 0 0 0 0 0 0 0 0 0 0 0 0 0 0 0 0 0 0 0 0 0 0 0 3 5 6 7 11 13
0 0 0 0 0 0 0 0 0 0 0 0 0 0 0 0 0 0 0 0 0 0 0 0 0 0 0 0 0 0 0 0 0 0 0 0 0 1 3 2 4 6 11
0 0 0 0 0 0 0 0 0 0 0 0 0 0 0 0 0 0 0 0 0 0 0 0 0 0 0 0 0 0 0 0 0 0 0 0 0 0 1 5 8 11 14
0 0 0 0 0 0 0 0 0 0 0 0 0 0 0 0 0 0 0 0 0 0 0 0 0 0 0 0 0 0 0 0 0 0 0 0 0 0 0 0 3 9 12
0 0 0 0 0 0 0 0 0 0 0 0 0 0 0 0 0 0 0 0 0 0 0 0 0 0 0 0 0 0 0 0 0 0 0 0 0 0 0 0 0 2 5
0 0 0 0 0 0 0 0 0 0 0 0 0 0 0 0 0 0 0 0 0 0 0 0 0 0 0 0 0 0 0 0 0 0 0 0 0 0 0 0 0 1 3
0 0 0 0 0 0 0 0 0 0 0 0 0 0 0 0 0 0 0 0 0 0 0 0 0 0 0 0 0 0 0 0 0 0 0 0 0 0 0 0 0 0 1
0 0 0 0 0 0 0 0 0 0 0 0 0 0 0 0 0 0 0 0 0 0 0 0 0 0 0 0 0 0 0 0 0 0 0 0 0 0 0 0 0 0 0
0 0 0 0 0 0 0 0 0 0 0 0 0 0 0 0 0 0 0 0 0 0 0 0 0 0 0 0 0 0 0 0 0 0 0 0 0 0 0 0 0 0 0
0 0 0 0 0 0 0 0 0 0 0 0 0 0 0 0 0 0 0 0 0 0 0 0 0 0 0 0 0 0 0 0 0 0 0 0 0 0 0 0 0 0 0
0 0 0 0 0 0 0 0 0 0 0 0 0 0 0 0 0 0 0 0 0 0 0 0 0 0 0 0 0 0 0 0 0 0 0 0 0 0 0 0 0 0 0
0 0 0 0 0 0 0 0 0 0 0 0 0 0 0 0 0 0 0 0 0 0 0 0 0 0 0 0 0 0 0 0 0 0 0 0 0 0 0 0 0 0 0
0 0 0 0 0 0 0 0 0 0 0 0 0 0 0 0 0 0 0 0 0 0 0 0 0 0 0 0 0 0 0 0 0 0 0 0 0 0 0 0 0 2 0
0 0 0 0 0 0 0 0 0 0 0 0 0 0 0 0 0 0 0 0 0 0 0 0 0 0 0 0 0 0 0 0 0 0 0 0 0 0 0 0 0 0 0
CIN
0 0 0 0 0 -1 -1 -1 0 -1 -1 -2 -1 -1 -2 -2 0 -1 -1 -1 -2 0 -1 -1 -1 -1 -1 -1 -1 0 -1 -1 -1 0 0 0 0 -1 -1 -1 0 0 0
0 0 0 0 0 0 0 -1 -1 -1 -1 -1 -1 0 0 -1 -1 -1 -1 -1 -1 -1 -1 -1 -1 -1 -1 -1 -1 0 0 -1 -1 0 0 0 0 -1 -1 -1 0 0 0
0 0 0 0 -1 0 0 0 -1 -1 0 -1 0 0 -1 0 -1 -1 -1 -1 -1 0 -1 -1 -1 -1 -1 -1 -1 -1 -1 0 0 0 0 0 0 -1 -1 -1 -1 0 0
0 0 0 -1 -1 -1 0 -1 -1 -1 -1 -1 -1 -1 -1 -1 -1 -1 -1 -1 -1 -1 -1 -1 -1 -1 -1 -1 -1 -1 0 0 0 0 0 0 0 -1 -1 0 0 -1 0
0 0 0 0 -1 0 0 0 0 -1 -1 -1 -1 0 0 0 -1 -1 -1 -1 -1 -1 -1 -1 0 -1 -1 -1 -1 -1 -1 0 0 0 0 0 0 -1 -1 -1 -1 0 -1
0 0 0 0 0 0 0 -1 -1 -1 0 0 -1 0 0 -1 -1 -1 -1 0 -1 -1 0 0 -1 -1 -1 -1 -1 -1 0 0 0 0 0 0 -1 -1 -1 -1 -1 -1 0
0 0 0 0 0 0 0 0 -1 0 0 -1 0 0 0 0 0 -1 -1 -1 -1 -1 -1 -1 -1 0 0 0 0 0 0 0 0 0 0 0 0 -1 -1 -1 0 -1 -1
0 0 0 0 0 0 0 0 0 -1 0 0 0 0 0 -1 0 0 0 0 -1 -1 -1 -1 -1 -1 -1 -1 -1 0 0 0 0 0 0 0 0 -1 0 -2 -1 -2 -1
0 0 0 0 0 0 0 0 -1 0 0 0 0 0 0 0 0 0 -1 0 0 0 0 0 0 0 0 0 0 0 0 0 0 0 0 0 -1 -1 -1 -1 -1 -1 -2
0 0 0 0 0 0 0 0 0 0 0 0 0 0 0 0 0 0 0 0 0 0 0 0 0 0 0 0 0 0 0 0 0 0 0 0 -1 -1 -1 -1 -2 -2 0
0 0 0 0 0 0 0 0 0 0 0 0 0 0 0 0 0 0 0 0 0 0 0 0 0 0 0 0 0 0 0 0 0 0 0 0 -1 -1 0 -1 -1 -1 -1
0 0 0 0 0 0 0 0 0 0 0 0 0 0 0 0 0 0 0 0 0 0 0 0 0 0 0 0 0 0 0 0 0 0 0 0 0 -1 -1 -1 -1 -1 -1
0 0 0 0 0 0 0 0 0 0 0 0 0 0 0 0 0 0 0 0 0 0 0 0 0 0 0 0 0 0 0 0 0 0 0 0 0 -1 0 -1 0 -1 -1
0 0 0 0 0 0 0 0 0 0 0 0 0 0 0 0 0 0 0 0 0 0 0 0 0 0 0 0 0 0 0 0 0 0 0 0 0 -1 0 -1 -1 0 -1
0 0 0 0 0 0 0 0 0 0 0 0 0 0 0 0 0 0 0 0 0 0 0 0 0 0 0 0 0 0 0 0 0 0 0 0 0 0 -1 -1 -1 0 -1
0 0 0 0 0 0 0 0 0 0 0 0 0 0 0 0 0 0 0 0 0 0 0 0 0 0 0 0 0 0 0 0 0 0 0 0 0 0 0 0 -1 -1 -1
0 0 0 0 0 0 0 0 0 0 0 0 0 0 0 0 0 0 0 0 0 0 0 0 0 0 0 0 0 0 0 0 0 0 0 0 0 0 0 0 0 -1 -1
0 0 0 0 0 0 0 0 0 0 0 0 0 0 0 0 0 0 0 0 0 0 0 0 0 0 0 0 0 0 0 0 0 0 0 0 0 0 0 0 0 -1 -1
0 0 0 0 0 0 0 0 0 0 0 0 0 0 0 0 0 0 0 0 0 0 0 0 0 0 0 0 0 0 0 0 0 0 0 0 0 0 0 0 0 0 0
0 0 0 0 0 0 0 0 0 0 0 0 0 0 0 0 0 0 0 0 0 0 0 0 0 0 0 0 0 0 0 0 0 0 0 0 0 0 0 0 0 0 0
0 0 0 0 0 0 0 0 0 0 0 0 0 0 0 0 0 0 0 0 0 0 0 0 0 0 0 0 0 0 0 0 0 0 0 0 0 0 0 0 0 0 0
0 0 0 0 0 0 0 0 0 0 0 0 0 0 0 0 0 0 0 0 0 0 0 0 0 0 0 0 0 0 0 0 0 0 0 0 0 0 0 0 0 0 0
0 0 0 0 0 0 0 0 0 0 0 0 0 0 0 0 0 0 0 0 0 0 0 0 0 0 0 0 0 0 0 0 0 0 0 0 0 0 0 0 0 0 0
0 0 0 0 0 0 0 0 0 0 0 0 0 0 0 0 0 0 0 0 0 0 0 0 0 0 0 0 0 0 0 0 0 0 0 0 0 0 0 0 0 0 -1
0 0 0 0 0 0 0 0 0 0 0 0 0 0 0 0 0 0 0 0 0 0 0 0 0 0 0 0 0 0 0 0 0 0 0 0 0 0 0 0 0 -1 0
0 0 0 0 0 0 0 0 0 0 0 0 0 0 0 0 0 0 0 0 0 0 0 0 0 0 0 0 0 0 0 0 0 0 0 0 0 0 0 0 0 -1 0
Wind_Speed
14 17 20 21 21 22 22 23 23 23 24 25 24 25 26 26 26 27 27 27 28 27 27 28 27 27 27 27 27 27 26 27 27 26 24 21 21 22 23 23 24 24 24
15 18 20 20 20 21 22 23 23 24 24 25 25 25 26 26 27 27 28 28 28 27 28 27 28 28 28 28 27 26 27 28 27 25 23 21 21 23 23 24 23 24 24
16 18 19 20 21 21 22 22 22 24 24 24 25 25 27 27 27 27 28 28 28 29 28 28 27 28 28 28 28 28 29 29 26 24 23 22 22 23 23 24 24 24 25
16 17 20 20 21 22 22 22 22 22 19 21 24 24 24 25 27 28 28 28 29 29 29 29 29 28 27 27 27 27 28 27 26 24 22 22 23 24 25 24 25 25 25
19 19 20 21 21 21 21 22 22 22 24 22 22 21 22 22 22 25 28 29 29 29 29 29 30 29 28 28 27 27 28 27 25 24 22 23 24 25 26 26 26 26 27
20 20 20 21 21 20 21 22 21 24 23 23 24 24 25 24 24 25 23 23 28 29 29 29 29 29 29 29 28 28 28 27 25 24 23 23 25 27 26 26 27 28 28
19 20 21 21 21 21 21 21 21 23 23 24 25 25 25 25 26 28 28 27 28 27 26 28 30 29 29 29 29 29 28 27 25 24 24 24 27 28 28 27 28 28 28
20 20 20 20 20 20 20 20 20 22 22 23 24 24 24 25 26 27 28 28 29 29 29 29 29 29 27 23 26 27 27 27 26 25 25 25 28 28 28 28 28 28 29
19 19 19 19 19 20 19 19 20 20 21 22 23 23 23 23 25 26 27 27 28 29 29 28 28 29 29 27 18 14 8 12 23 24 24 26 28 29 28 28 29 29 29
19 19 18 17 17 17 18 19 19 19 19 19 20 20 19 20 20 24 25 27 27 28 28 28 28 28 27 27 22 11 5 10 19 21 25 24 25 28 29 29 29 29 29
18 18 17 17 17 17 17 17 17 17 16 16 17 18 15 18 19 20 24 24 26 26 27 28 28 27 25 26 24 14 8 21 23 26 27 28 29 30 31 30 30 30 31
17 17 17 17 16 16 15 15 15 15 15 15 15 16 17 18 18 17 19 21 21 24 23 25 27 27 26 24 23 25 28 28 28 26 27 30 31 31 30 31 31 32 33
17 17 16 16 15 15 15 14 14 14 14 14 15 15 15 15 16 18 18 19 21 24 25 25 26 27 25 25 27 28 29 29 28 26 27 30 31 30 30 28 29 31 32
16 15 15 15 14 14 13 13 13 13 13 13 14 14 14 14 15 17 18 18 20 22 25 23 26 26 26 26 27 28 28 29 28 27 26 29 31 30 30 30 29 29 29
14 14 13 13 13 12 12 12 12 12 12 12 12 13 13 13 13 14 16 18 18 20 20 21 25 26 26 26 27 28 28 28 28 28 26 27 30 30 31 31 31 30 30
12 12 12 11 11 11 10 10 10 10 11 11 11 12 12 12 12 13 14 16 17 19 19 19 21 23 26 27 27 26 26 27 27 28 27 27 29 30 30 31 32 32 31
11 10 10 9 9 9 9 9 9 9 9 9 10 10 10 11 11 12 12 14 16 16 17 19 21 21 24 25 26 26 24 25 27 28 27 27 28 29 30 29 32 32 32
10 9 9 8 8 7 7 7 8 8 8 8 8 9 9 9 10 10 11 12 14 14 15 16 18 20 22 24 25 25 24 22 25 28 27 28 28 30 30 30 31 31 30
9 8 8 8 8 7 6 6 6 6 6 7 7 7 8 8 8 8 9 10 12 12 13 15 16 18 19 21 23 22 22 23 24 27 28 29 29 30 29 31 32 30 30
9 9 8 8 8 7 6 5 5 5 4 5 5 6 6 7 7 7 8 8 10 11 12 13 14 15 16 19 19 19 20 21 22 24 26 27 29 31 30 31 31 31 32
8 7 8 7 7 7 6 5 4 3 3 3 3 3 4 5 5 5 6 7 8 10 12 12 13 14 16 18 18 22 17 16 21 21 24 27 28 31 31 32 31 31 32
7 7 7 7 6 5 3 3 2 2 1 2 3 3 2 3 3 4 5 6 7 9 9 11 13 15 15 18 20 17 22 21 20 26 23 25 26 29 30 30 31 31 32
7 6 6 6 5 4 3 1 3 4 5 4 3 3 3 1 2 3 4 5 7 7 8 10 11 13 16 17 18 20 23 23 27 21 25 25 27 28 28 29 29 30 31
5 4 4 5 5 5 4 4 4 6 7 6 6 5 5 3 3 4 4 5 6 7 7 8 10 12 13 16 17 16 16 18 23 25 23 29 30 28 29 28 29 29 31
3 4 5 5 6 6 6 7 7 9 9 10 9 9 7 6 5 5 5 6 7 8 8 8 9 10 11 13 15 16 17 17 16 17 22 25 27 29 27 28 26 26 28
3 4 5 7 8 8 9 9 10 10 11 12 12 12 11 10 9 7 6 7 8 9 9 10 9 9 10 11 13 14 15 17 19 21 23 25 29 27 28 27 26 23 25
Wind_Direction
32 23 8 7 9 10 11 10 9 8 5 5 4 3 -0 359 354 352 349 348 347 347 345 342 342 343 343 340 338 339 337 330 329 329 330 333 332 332 332 330 324 324 323
40 19 13 16 14 16 19 20 18 18 15 12 8 5 3 0 359 358 353 351 351 349 347 344 343 342 340 338 338 341 339 334 328 326 328 331 335 331 332 332 329 325 323
39 33 32 48 73 60 60 57 58 46 46 37 32 31 12 9 5 1 1 359 358 355 353 349 346 343 342 339 337 334 333 335 336 332 331 330 331 328 329 330 329 327 323
65 125 57 84 71 61 62 68 69 69 80 71 59 50 47 35 20 10 7 3 3 3 1 358 356 350 345 343 340 339 339 337 336 336 336 333 327 330 326 325 326 326 325
82 88 69 78 77 76 80 75 69 71 60 69 66 73 67 65 63 45 12 6 5 6 6 4 3 1 355 350 345 342 339 338 337 338 336 335 331 330 326 326 323 322 323
92 79 76 86 90 89 79 78 77 60 65 63 60 58 55 62 62 60 64 60 31 14 11 8 6 3 2 358 353 348 344 341 338 337 336 334 332 328 327 327 325 321 320
81 82 83 90 94 89 83 83 74 65 62 59 54 50 46 51 42 38 39 46 39 44 49 36 22 8 359 358 357 353 349 347 346 343 338 335 333 327 328 326 324 323 320
91 102 92 94 94 88 85 84 79 69 65 57 52 48 47 41 35 30 30 27 20 11 21 27 17 11 1 336 343 347 345 349 356 353 348 343 338 335 331 329 328 325 323
98 104 102 95 85 89 90 83 84 76 72 65 59 57 57 51 40 33 23 21 15 10 10 10 8 8 15 350 317 307 289 305 338 345 343 344 338 339 340 337 331 328 324
112 115 114 114 109 108 89 86 87 84 81 77 70 66 71 68 64 43 33 21 17 8 6 6 5 2 23 7 328 299 263 286 315 319 340 321 317 332 336 338 338 334 331
118 120 120 118 115 112 105 83 92 86 89 89 84 76 86 70 61 54 38 32 19 15 8 5 358 352 340 2 338 302 293 319 326 341 352 328 328 335 336 337 334 331 330
120 122 123 120 116 113 109 105 102 97 93 88 84 81 75 68 64 66 58 50 45 33 35 24 11 349 345 333 327 337 355 354 7 11 3 339 339 354 352 345 338 331 328
123 122 123 118 117 114 109 105 103 99 96 90 85 79 79 76 70 57 55 48 38 19 10 13 2 359 341 340 348 359 6 8 9 15 11 1 358 359 357 5 359 350 344
125 124 122 119 115 114 108 107 96 98 92 91 82 81 83 81 73 60 54 54 44 28 3 340 1 353 344 347 357 6 7 8 9 10 12 7 359 1 3 2 2 359 359
123 123 122 116 115 110 107 100 95 93 90 83 85 77 82 81 81 70 59 49 47 37 40 32 9 346 338 344 354 359 6 7 8 10 10 9 3 2 357 359 359 358 357
127 123 122 118 112 108 102 95 91 89 85 88 82 76 76 81 79 74 65 54 47 42 40 37 28 20 358 348 357 7 11 11 9 9 8 6 2 1 359 358 355 355 353
130 122 123 115 110 109 100 90 86 85 84 85 82 77 79 80 76 73 68 61 51 47 45 34 27 25 11 8 5 8 13 11 8 7 9 8 5 2 0 360 355 354 352
136 132 125 118 117 108 99 87 84 81 82 83 80 77 79 79 79 75 68 63 55 54 50 46 39 26 17 14 10 9 12 15 8 3 7 5 4 1 359 358 356 354 353
147 137 138 136 135 125 113 98 90 84 80 76 76 74 73 74 78 79 74 64 59 60 56 49 43 35 29 21 15 13 13 12 9 5 1 360 1 360 359 354 352 352 350
154 157 151 148 149 139 123 118 101 88 82 71 69 70 68 64 70 70 68 65 60 57 55 48 44 39 35 24 21 18 15 14 13 9 4 3 1 358 357 355 353 350 347
167 166 167 163 159 152 147 139 134 107 82 63 62 62 65 62 61 69 63 59 54 49 42 43 41 37 33 27 24 15 20 23 17 13 7 3 359 357 354 353 352 351 348
180 182 182 182 178 172 157 146 139 97 73 44 36 35 48 52 50 55 53 45 45 40 42 39 35 30 29 26 23 24 16 16 18 5 12 7 3 360 357 354 353 351 349
194 197 200 203 204 204 204 309 346 351 356 356 348 352 355 1 10 17 22 25 26 32 31 31 31 28 22 22 23 21 15 11 5 18 7 7 2 -0 359 356 355 352 350
214 238 234 238 234 238 245 280 286 313 315 321 328 333 338 330 329 338 346 356 3 11 16 20 23 22 22 18 18 23 20 15 10 6 8 1 359 358 358 357 354 353 354
238 254 257 260 263 263 264 261 283 290 308 319 322 324 325 329 319 319 325 334 340 348 355 2 10 13 15 13 13 13 12 11 10 4 359 2 0 359 359 357 357 359 0
307 278 269 265 265 267 261 263 267 280 291 306 308 312 315 316 319 310 312 319 327 333 338 344 351 356 0 4 6 7 7 6 3 1 357 358 357 359 359 360 360 7 6